Theta_e
336 336 336 336 338 339 338 338 338 338 337 338 339 338 338 338 337 338 338 338 338 338 336 333 333 333 333 334 334 334 334 334 334 334 335 335 335 334 335 336 336 335 335 335 335 335 335 334 333 333 335 335 335 335 334 333 333 332 331 330 330 329 329 329 329 330 331 331 332 331 331 331 331 331 329 329 329 329 329 329 329 328 327 327 327
334 333 334 334 336 337 337 337 337 337 337 338 339 338 338 338 338 338 338 338 337 337 335 332 332 332 333 333 333 334 334 333 333 333 334 334 334 335 335 336 335 335 335 334 334 334 333 333 333 333 334 334 334 334 334 333 333 332 331 330 330 329 329 328 329 330 330 331 330 330 329 329 329 329 330 330 329 328 328 328 328 329 329 328 327
336 334 333 333 335 335 335 336 336 336 336 337 337 338 338 337 337 337 338 337 336 335 334 332 332 332 333 334 334 334 334 334 334 333 333 334 335 335 335 335 335 335 335 334 334 333 333 334 334 334 334 334 334 334 334 334 333 332 331 330 329 329 328 329 329 329 329 329 329 330 329 329 329 328 329 329 328 328 328 327 328 328 329 329 329
336 335 334 333 333 334 334 335 336 335 336 336 336 337 337 337 336 336 336 336 335 334 333 332 332 332 333 334 335 335 334 335 335 334 334 334 335 335 334 334 333 333 335 334 333 333 333 334 334 334 334 333 333 333 334 334 333 332 330 331 330 329 329 328 329 329 328 328 329 329 328 330 330 329 328 328 327 327 328 328 327 328 328 329 329
336 335 335 333 333 333 333 334 335 335 335 335 335 335 336 336 335 335 334 334 334 333 332 332 332 333 334 334 334 334 335 335 336 335 334 334 335 334 332 333 332 332 332 332 333 333 332 333 333 333 333 333 333 333 334 334 333 332 331 331 330 330 329 328 329 329 328 328 328 328 329 330 329 328 328 328 328 327 328 328 328 327 328 328 328
334 335 334 333 333 332 333 334 334 334 334 334 334 334 335 335 335 335 334 334 333 333 333 332 333 333 334 334 334 334 334 335 335 335 335 334 334 333 333 333 332 332 331 332 332 332 332 332 333 333 333 333 333 333 335 334 333 332 331 331 331 331 330 328 329 329 328 328 327 327 328 328 327 328 328 328 328 328 328 328 328 327 327 328 327
334 334 334 333 332 332 333 333 333 334 334 333 334 334 333 334 334 334 333 333 333 333 333 333 333 334 333 334 334 334 334 334 334 335 335 335 334 334 333 333 332 332 331 332 332 332 332 332 333 333 333 333 333 333 334 334 334 333 332 331 331 331 330 329 329 329 328 328 327 327 328 327 326 327 327 327 328 328 328 328 329 328 328 328 327
334 334 333 332 332 332 332 332 333 333 333 333 334 333 333 333 334 334 334 333 333 333 333 333 333 334 334 333 334 334 334 333 334 335 335 335 334 333 333 333 332 332 332 332 333 333 332 332 332 332 333 334 333 333 334 334 334 333 332 331 331 331 330 330 330 330 329 328 327 328 329 327 326 326 326 326 328 328 328 328 328 328 328 328 328
333 334 333 332 331 331 331 331 332 332 333 333 333 333 333 333 333 333 333 334 333 333 333 333 333 333 333 333 333 333 334 333 334 335 334 334 333 333 332 332 332 332 332 332 333 334 333 332 332 332 333 334 333 333 334 334 333 333 332 332 331 330 330 330 330 330 330 329 328 329 329 327 326 326 326 326 326 327 329 327 326 327 327 328 328
332 331 332 331 330 331 331 331 331 332 331 331 331 332 332 333 333 333 333 334 333 334 333 332 332 333 333 333 333 333 333 334 334 333 333 333 333 332 332 331 332 333 333 332 333 333 333 333 332 333 333 333 332 333 333 333 333 333 332 332 331 330 330 330 330 330 330 329 328 328 328 327 326 326 326 326 326 326 327 327 326 326 326 327 327
331 331 331 330 329 329 329 329 329 330 330 330 330 330 331 332 333 333 333 333 333 333 333 332 332 331 332 332 333 333 333 333 333 333 333 332 332 332 332 331 332 333 333 333 333 333 333 332 333 334 333 333 333 333 333 333 332 332 332 332 331 331 330 330 330 330 330 330 329 329 329 328 327 327 327 326 325 325 326 327 327 326 326 326 326
330 330 331 330 329 328 327 327 327 327 327 327 328 328 330 331 331 332 332 332 332 332 331 332 332 331 332 332 332 333 333 333 333 333 332 332 332 332 332 332 332 333 333 333 334 334 332 332 333 333 333 333 333 333 333 332 332 332 332 332 332 331 331 331 330 330 330 330 329 329 329 329 328 328 327 327 325 325 326 327 326 326 326 325 325
328 329 329 329 328 327 327 327 326 326 326 326 327 327 328 330 331 331 331 330 330 330 330 331 333 332 332 332 332 332 332 332 333 332 332 332 332 332 331 331 332 333 333 333 333 334 333 332 333 332 332 332 333 332 332 332 332 332 332 332 332 332 332 331 331 331 330 330 330 329 329 330 329 328 327 327 326 325 325 326 326 326 326 325 325
326 327 327 327 327 326 326 327 327 326 326 327 327 327 327 329 330 331 331 331 331 330 330 332 333 333 332 332 332 332 332 332 333 332 333 332 332 332 331 332 332 332 333 333 333 333 333 333 332 332 332 332 332 332 332 332 331 331 332 332 332 332 332 332 331 331 331 331 331 330 330 330 329 328 327 327 326 325 324 325 325 325 325 325 324
326 326 327 326 326 326 326 326 326 326 326 326 326 327 327 328 329 331 332 332 332 331 331 332 333 333 333 333 333 333 332 332 332 332 332 332 332 331 331 331 332 332 332 332 333 333 333 333 332 332 332 332 332 332 332 333 332 331 331 331 332 332 331 331 331 331 331 331 330 330 330 330 329 328 328 327 327 325 324 324 324 325 326 325 323
325 325 326 326 326 326 326 326 325 325 325 326 326 327 327 328 328 329 331 332 332 332 332 332 332 332 333 333 332 332 332 332 332 332 332 331 331 331 331 331 331 331 332 332 332 333 333 333 332 331 332 333 332 332 332 333 332 331 331 330 331 331 331 331 330 330 331 331 330 330 330 330 329 328 328 327 327 326 325 325 324 324 326 326 323
322 323 324 326 326 326 326 326 326 326 325 326 326 326 328 328 328 328 329 331 332 331 331 331 330 331 331 332 332 331 333 333 332 332 332 331 331 331 330 330 331 331 332 332 332 332 332 332 332 331 332 333 333 332 332 332 332 331 331 331 331 330 331 330 330 330 331 330 330 330 330 329 329 328 328 328 327 326 325 324 324 324 325 326 325
319 320 321 323 325 326 326 326 326 326 326 325 326 326 328 328 328 328 329 330 330 330 330 328 327 328 329 330 330 330 332 333 333 332 332 331 331 331 330 330 331 331 331 332 333 332 332 332 332 331 331 332 333 333 332 332 331 331 331 331 330 330 331 330 330 330 330 330 330 330 330 329 329 329 329 328 327 326 326 325 324 324 324 324 324
318 318 318 319 322 323 324 324 324 325 325 325 326 326 326 326 326 327 327 327 328 328 327 326 326 327 327 327 328 330 331 332 332 332 332 331 330 330 330 330 331 330 330 332 333 333 333 332 332 331 332 332 333 333 332 332 332 331 331 331 330 331 331 330 331 330 330 330 330 330 330 329 329 329 328 328 327 327 326 325 325 324 324 324 322
316 316 316 317 318 319 320 320 321 322 324 325 325 324 325 324 325 325 325 325 326 326 325 325 326 326 326 327 327 328 330 330 330 331 330 329 330 330 331 331 331 331 331 332 333 333 333 332 332 332 331 332 332 332 332 332 332 332 331 331 331 331 330 330 331 331 331 331 330 330 330 329 328 328 328 327 327 327 326 326 325 324 324 323 322
314 313 314 314 315 315 316 317 317 319 321 322 324 324 324 324 324 324 325 325 325 325 325 326 326 326 326 327 327 328 329 328 328 329 327 328 330 331 331 331 331 331 332 333 332 333 333 331 331 331 331 331 331 331 331 331 332 332 331 331 331 331 330 330 331 331 331 331 331 330 330 328 328 329 328 328 327 327 327 325 325 324 324 323 322
312 311 311 312 313 313 313 313 314 316 318 319 320 322 323 324 324 324 325 325 325 326 326 326 326 326 327 327 327 328 327 327 327 327 327 328 330 330 331 331 331 331 332 332 333 332 332 331 330 331 331 330 330 330 330 330 331 332 331 331 331 331 331 331 331 331 331 331 331 330 328 328 328 328 328 328 327 327 327 326 325 325 324 323 322
309 310 310 310 310 310 310 310 311 312 314 315 317 318 320 322 323 324 325 325 325 326 326 327 326 326 327 327 327 327 326 326 326 327 327 327 329 329 330 331 331 331 332 332 332 331 330 330 330 330 329 329 329 329 328 329 330 330 331 331 331 331 331 330 330 330 330 331 330 328 328 328 328 328 328 328 327 327 327 326 326 325 324 324 323
307 308 308 308 308 308 308 308 308 309 310 312 314 315 317 319 320 322 324 325 325 326 326 327 327 327 327 327 327 326 326 326 326 327 327 328 328 329 329 330 331 331 331 331 331 330 330 330 329 328 328 328 328 328 327 328 328 329 329 329 330 330 330 329 329 329 329 329 329 328 329 328 327 328 328 327 327 326 327 326 326 325 324 324 324
306 305 306 307 307 306 306 306 306 306 307 309 310 312 313 316 318 319 322 324 325 325 326 326 327 328 328 327 327 326 326 326 326 327 327 327 329 329 330 330 330 331 331 331 330 330 329 329 327 327 328 328 327 327 327 327 327 327 328 328 328 329 329 329 328 328 328 329 328 328 328 328 327 327 327 327 327 326 326 326 325 325 325 324 324
305 304 304 305 305 305 305 305 304 305 306 307 308 310 311 314 317 319 320 323 325 325 325 326 326 327 328 327 327 326 326 326 326 327 327 328 329 330 330 330 330 330 331 330 329 329 329 328 328 327 327 327 327 327 326 326 326 327 327 327 327 328 328 329 328 328 328 328 328 328 327 327 327 327 327 326 326 326 326 326 325 325 324 324 324
304 303 303 303 303 304 304 304 303 304 304 306 307 308 310 311 315 318 320 322 324 324 325 325 325 326 327 327 327 326 326 326 327 328 328 329 330 330 330 330 329 330 329 329 329 328 328 328 328 327 326 326 326 326 326 326 326 326 326 325 325 327 328 329 329 329 329 328 328 328 327 327 327 327 326 325 325 326 325 325 325 325 324 324 324
303 302 302 302 302 302 303 303 303 303 304 305 306 307 307 309 312 316 319 321 323 324 324 324 325 325 326 326 326 326 326 326 326 327 327 327 329 329 329 329 329 328 329 329 328 327 327 327 327 326 326 326 326 326 325 326 326 325 324 324 325 325 327 328 329 328 328 327 327 327 326 326 326 325 325 325 324 324 324 324 324 325 325 324 324
302 302 301 301 301 301 302 302 302 302 303 303 304 305 305 307 310 313 317 320 322 324 324 324 324 324 325 326 326 326 326 327 327 327 326 326 328 328 328 328 329 329 328 327 327 326 325 326 326 325 325 325 326 325 325 325 325 324 323 324 324 324 325 327 328 328 327 326 326 326 325 324 324 323 322 322 321 321 320 319 320 321 322 323 323
302 301 301 300 301 301 301 302 302 302 302 303 303 303 304 305 307 310 313 317 320 322 322 322 323 324 325 325 325 325 326 326 326 326 325 325 326 326 327 327 328 328 328 326 325 325 325 325 325 323 323 324 324 325 325 325 324 323 322 323 323 323 324 326 327 327 326 326 325 323 322 322 321 320 319 319 319 319 318 318 318 318 319 320 321
301 301 300 300 300 300 300 300 301 301 302 302 302 302 303 303 305 307 311 315 319 320 320 321 321 323 324 325 325 325 325 325 325 325 325 324 324 325 326 326 326 327 327 326 325 324 324 324 324 321 321 323 323 324 324 323 322 321 321 321 321 322 324 324 326 326 324 323 321 320 319 319 319 319 319 318 317 317 317 317 318 318 319 319 320
300 300 300 300 299 299 300 300 300 301 301 302 302 302 302 302 303 305 309 313 317 317 318 319 320 321 322 324 324 324 324 325 325 324 324 324 323 325 325 325 325 325 325 324 323 323 324 324 322 320 320 320 321 321 320 320 321 321 320 320 320 322 324 324 325 324 322 320 319 319 318 318 318 317 316 316 316 316 316 316 316 317 317 317 317
300 299 299 299 299 299 299 300 300 301 301 301 302 302 301 302 303 306 309 311 313 314 316 317 318 319 320 321 322 323 322 323 324 324 324 323 323 324 325 324 324 324 323 322 322 323 324 324 322 321 319 318 318 318 319 320 321 321 321 321 322 323 324 324 323 322 320 319 318 318 317 316 316 316 316 317 317 317 318 318 318 318 317 317 317
299 299 299 299 299 299 299 300 300 300 301 301 301 301 302 302 303 307 310 311 310 312 314 315 316 317 318 319 321 321 321 322 323 323 323 323 323 323 324 324 323 322 321 320 320 322 323 323 322 321 320 318 317 317 318 319 320 320 321 322 322 323 322 321 320 319 318 318 317 317 317 317 318 318 318 318 318 318 318 318 318 318 318 318 318
299 299 298 299 299 299 299 300 300 300 301 301 301 302 302 302 302 304 307 310 311 311 311 313 315 316 317 318 319 320 321 321 322 323 322 322 322 321 321 322 322 321 319 319 320 321 322 322 321 321 320 318 317 317 317 318 319 319 321 321 322 322 321 319 318 318 318 318 318 318 318 318 319 318 318 318 318 318 318 318 318 318 318 318 318
299 298 298 298 299 299 299 300 300 300 301 301 302 302 301 301 301 301 303 307 310 309 308 310 313 315 316 317 318 319 319 319 320 321 321 321 321 320 318 318 317 317 316 317 318 319 320 320 319 319 319 318 317 317 317 319 319 320 321 321 321 320 319 319 318 318 318 318 318 318 318 318 318 319 319 318 318 318 318 318 318 318 318 318 318
299 298 298 299 299 299 299 300 300 300 301 301 301 301 301 301 301 300 300 303 306 306 305 307 311 313 315 316 317 317 318 318 319 319 319 320 320 318 317 315 314 314 314 316 317 317 317 318 317 318 317 317 317 318 318 319 320 320 321 321 320 320 319 319 319 319 319 318 318 318 318 319 319 318 318 317 317 317 317 317 317 316 316 316 316
299 298 298 299 299 299 299 299 300 300 301 301 301 301 301 301 300 300 299 300 301 302 304 306 308 311 314 316 317 317 317 317 317 317 318 318 317 316 315 314 313 312 313 314 315 316 316 316 317 317 317 318 318 318 319 319 319 320 320 320 320 320 320 320 320 319 319 319 319 319 319 319 318 318 317 316 315 316 315 313 312 312 312 312 312
299 299 299 299 299 299 299 299 300 300 300 301 301 301 301 301 300 299 299 299 299 299 301 304 306 309 313 315 316 317 317 316 315 315 315 316 315 314 313 313 313 312 313 314 314 315 316 316 317 317 317 318 319 319 319 319 319 320 320 320 320 320 320 320 320 319 318 318 318 318 317 317 316 315 315 314 313 314 313 309 309 308 308 308 309
299 299 299 299 299 299 299 299 299 300 300 301 301 301 301 301 300 299 299 299 298 298 300 303 306 309 312 313 315 316 316 316 315 314 313 314 314 314 314 313 313 311 312 313 314 315 315 314 315 316 316 317 317 318 318 319 318 318 319 319 319 319 319 319 319 318 316 315 314 313 312 312 313 312 312 311 311 311 310 308 307 306 306 307 308
299 299 299 299 299 299 299 299 299 299 300 301 301 301 301 301 300 300 299 298 298 298 299 303 307 308 310 311 313 314 315 316 315 314 313 312 313 314 314 314 313 312 312 313 314 314 314 315 315 316 316 316 316 317 317 318 317 316 317 317 317 317 318 318 318 317 315 313 311 310 310 310 310 310 309 309 308 308 307 306 305 304 303 303 304
299 299 299 299 299 299 299 299 299 299 300 300 301 301 301 301 301 301 299 298 297 298 300 303 306 308 308 309 310 312 314 315 315 315 314 312 312 313 314 314 314 314 314 314 314 314 315 314 315 316 317 317 317 317 317 317 317 317 317 317 316 317 318 317 316 315 313 311 310 308 307 307 307 307 306 306 305 304 303 303 302 301 301 301 301
299 299 299 298 298 298 298 299 299 299 299 300 300 300 300 301 301 301 300 297 297 298 300 302 305 306 308 308 308 309 312 312 314 314 314 313 312 312 313 314 314 314 313 313 313 313 313 313 313 314 316 316 316 317 318 317 317 317 317 316 316 316 316 316 315 313 310 309 307 307 305 305 305 305 304 303 303 302 302 302 301 301 302 301 301
299 299 298 298 298 298 298 298 299 299 299 299 300 300 300 301 301 302 301 299 298 298 299 301 304 305 307 308 308 308 309 310 311 312 312 312 311 310 311 312 314 314 312 310 311 312 313 312 312 313 313 313 314 315 315 315 315 315 314 314 314 314 313 314 313 310 308 307 307 306 305 304 304 304 303 302 302 302 302 302 302 302 302 301 300
298 298 298 298 298 298 297 298 298 299 300 300 300 300 300 300 301 302 301 301 300 299 298 300 301 303 305 308 308 306 306 306 307 307 307 307 308 308 308 309 310 311 310 308 308 309 310 310 309 309 308 309 310 311 311 312 312 311 311 310 310 310 310 311 309 307 307 307 306 305 305 304 304 303 303 303 303 302 302 302 302 302 301 300 299
298 298 298 298 298 298 298 298 298 298 299 300 300 300 300 300 301 301 301 301 300 299 298 298 299 299 302 305 307 306 305 305 305 304 303 303 304 304 304 305 305 306 306 305 306 306 306 306 305 305 304 305 307 308 308 308 308 308 307 307 307 307 307 307 306 306 306 306 306 305 305 304 303 303 303 303 303 302 302 302 302 301 301 300 299
297 297 298 298 298 297 297 297 297 298 298 299 299 299 300 301 301 301 302 301 300 299 298 298 298 298 299 301 303 305 304 304 304 304 302 302 302 301 301 302 302 302 303 303 303 303 304 304 303 303 304 305 306 306 306 307 307 306 306 305 305 305 305 304 303 303 305 306 306 305 305 304 304 303 303 303 303 302 302 301 301 300 300 299 298
298 297 297 297 297 297 297 297 297 297 298 298 298 299 299 301 301 301 302 302 301 300 298 298 298 298 298 299 300 301 302 302 302 302 302 301 301 300 300 299 299 300 300 300 300 300 301 301 302 302 304 304 304 304 304 304 304 303 303 303 304 303 303 303 302 302 304 305 306 305 305 304 304 303 302 302 301 301 301 300 300 299 299 298 298
297 297 297 297 297 297 296 296 297 297 298 298 298 298 299 300 300 301 302 302 301 300 300 299 298 298 298 298 298 299 299 299 300 300 300 299 299 299 299 299 299 299 299 299 299 299 299 300 300 301 301 301 301 300 300 300 300 300 300 300 301 301 301 302 301 301 302 303 304 304 304 303 303 302 301 300 300 300 299 299 298 298 298 298 298
297 297 297 297 297 297 297 296 296 297 297 297 298 298 298 299 299 300 301 301 301 300 300 299 298 298 298 298 298 298 298 299 299 299 298 298 298 298 299 298 298 299 299 299 300 299 299 300 300 299 300 300 299 299 299 298 299 299 299 299 300 300 301 301 301 302 302 303 303 303 302 301 301 300 299 298 298 298 298 297 297 297 297 297 297
297 297 296 296 297 297 297 296 296 296 296 296 297 298 298 298 298 299 300 300 301 300 299 298 298 298 298 298 298 298 298 298 298 298 298 298 298 298 298 298 298 298 298 298 298 298 298 299 299 299 298 298 298 298 298 297 298 299 299 300 300 301 301 301 302 302 302 302 301 300 299 298 298 297 297 297 296 296 297 297 296 296 296 296 297
Wind_Speed
5 7 7 8 12 12 12 13 14 15 14 13 13 15 17 18 20 20 20 20 20 21 20 15 12 11 14 18 20 19 17 16 13 13 13 13 14 15 18 19 18 16 18 21 21 20 19 20 22 20 19 18 17 16 17 17 19 21 20 18 18 16 16 17 19 21 19 15 13 12 9 8 8 8 9 10 10 11 12 11 11 12 11 10 9
1 1 2 5 10 11 12 13 14 15 15 15 17 18 19 20 21 21 20 20 20 22 19 12 12 14 16 18 19 18 16 15 14 13 12 12 14 15 17 19 19 18 19 20 19 18 18 21 23 20 19 19 17 16 17 18 19 21 21 19 17 18 19 20 21 19 15 12 10 9 7 5 5 6 6 7 7 7 7 7 8 10 10 9 9
2 3 3 5 8 10 12 12 13 14 14 16 16 16 17 18 19 19 20 20 19 20 17 14 15 18 18 16 15 14 13 13 13 13 12 11 14 15 16 17 18 18 18 17 17 16 18 22 23 20 19 19 18 18 18 18 19 20 21 20 18 19 19 20 21 16 14 15 11 5 3 3 3 3 2 2 3 2 2 3 3 5 6 7 7
4 4 4 5 5 6 8 9 10 11 12 13 13 12 13 16 17 16 16 18 18 17 16 15 15 16 16 16 13 12 11 9 8 10 10 10 14 15 15 16 17 19 18 17 16 17 19 21 22 20 19 19 19 19 19 19 20 20 21 21 21 20 19 20 18 13 16 18 9 3 2 2 2 2 3 3 0 0 2 2 2 2 4 5 6
4 5 5 5 3 2 4 7 9 10 11 11 11 11 11 12 15 15 14 15 16 15 15 15 14 14 13 12 11 10 10 9 9 10 10 12 15 16 17 17 17 18 18 18 18 19 20 21 21 20 19 19 19 19 19 19 19 21 21 20 21 19 19 22 17 12 17 17 10 5 3 1 2 3 4 3 1 2 3 2 2 1 3 5 5
3 4 4 5 4 3 3 6 8 9 8 8 8 10 10 10 12 15 15 14 15 15 16 18 18 17 15 13 13 12 12 13 14 13 13 15 17 17 18 19 18 18 18 19 20 21 22 21 20 19 19 19 19 19 19 19 19 20 20 20 20 19 19 22 19 16 18 15 9 7 4 3 5 7 5 1 2 4 4 3 3 2 3 4 5
5 4 4 5 5 5 3 4 6 7 7 6 7 9 11 11 12 14 15 15 15 16 18 19 20 20 18 17 16 15 15 15 15 16 16 17 17 16 17 17 18 18 18 19 20 21 21 22 21 18 18 19 19 19 19 19 19 17 18 19 19 20 20 22 21 21 20 14 8 7 4 4 9 10 7 3 3 4 4 5 5 5 5 4 4
5 5 5 4 5 6 4 4 4 5 6 6 7 8 10 12 13 14 15 15 15 16 18 20 20 19 19 19 18 18 17 16 16 17 18 19 18 16 16 16 16 17 18 19 19 19 20 21 21 19 18 18 18 19 18 17 17 16 17 19 19 20 20 21 22 23 22 17 12 7 3 8 12 10 10 9 5 3 4 5 5 5 7 5 3
5 6 5 4 6 6 5 5 4 5 4 5 6 7 9 11 12 12 13 16 17 16 17 18 19 19 18 19 19 18 16 16 16 17 18 19 18 17 15 15 15 16 18 20 20 19 18 20 20 20 19 18 18 17 17 16 16 16 17 18 19 20 19 19 21 23 23 20 16 10 7 11 11 6 9 10 6 4 4 4 4 5 6 6 3
4 5 5 5 6 6 5 4 4 4 3 3 4 6 8 10 11 12 12 15 17 18 18 18 18 19 20 20 19 17 16 15 17 18 18 18 17 17 16 15 15 15 17 19 21 19 18 20 20 20 19 18 18 17 16 16 16 16 16 17 18 19 18 18 18 19 20 19 17 14 11 13 9 5 9 10 6 5 4 5 7 5 5 5 5
2 3 4 5 5 5 4 3 1 1 3 3 3 3 5 7 9 11 12 14 16 18 19 19 18 18 21 22 21 19 18 17 18 19 19 19 19 18 17 18 19 18 19 19 19 19 19 20 19 19 18 17 17 17 16 16 16 16 16 16 18 18 17 16 16 16 18 17 16 15 13 13 9 7 11 14 9 7 6 6 7 7 7 5 6
2 2 3 4 5 5 5 4 5 5 6 7 6 6 5 5 8 10 11 12 15 18 20 20 19 19 20 22 23 22 21 20 20 20 21 21 21 19 18 20 22 21 21 20 19 19 19 19 18 18 17 17 17 16 16 15 15 15 16 17 17 17 16 15 15 14 15 17 16 15 13 12 11 8 11 15 13 11 12 9 7 9 7 5 8
7 5 5 5 5 6 7 7 8 8 8 9 8 7 6 5 6 8 10 11 13 17 20 22 22 21 21 22 24 24 23 22 21 21 22 21 21 20 19 22 24 24 23 22 20 19 19 18 18 18 17 17 17 17 16 15 14 15 16 16 16 16 16 15 16 15 15 16 16 16 13 11 11 9 9 13 14 14 15 11 8 8 5 5 8
7 6 6 5 5 7 8 8 8 8 9 9 8 7 6 4 5 7 8 11 14 17 20 23 23 23 24 24 25 26 25 23 22 21 22 22 22 22 22 23 24 25 24 22 20 19 19 18 18 18 17 16 16 16 16 15 14 15 16 16 15 15 15 15 15 15 14 14 14 16 15 12 11 10 9 14 15 15 16 14 11 7 5 6 5
6 6 6 6 7 8 8 9 9 9 9 9 8 7 6 4 5 7 9 12 17 19 21 23 23 24 26 26 26 25 23 21 20 21 20 21 21 23 24 24 24 24 24 22 20 19 19 18 18 18 17 17 17 16 16 15 14 14 15 15 15 15 15 15 15 15 14 13 12 13 13 12 11 9 10 13 15 15 15 18 18 10 4 4 3
7 7 7 8 10 11 11 12 12 12 12 10 6 4 4 4 5 8 11 17 21 21 22 25 26 25 24 23 23 22 19 18 18 20 20 20 21 22 23 24 24 24 23 22 20 19 18 18 18 18 17 18 18 17 16 16 15 15 14 14 15 15 15 15 15 16 14 12 11 11 11 10 10 9 9 12 14 14 14 18 21 17 9 4 3
7 6 6 8 9 11 13 14 14 15 15 12 8 4 4 4 6 9 14 19 21 22 23 22 20 20 21 22 22 21 19 18 18 19 20 21 22 22 23 23 23 23 23 22 20 19 19 18 17 18 18 18 18 16 16 15 14 14 13 13 14 15 15 14 14 15 14 12 12 11 9 8 9 9 9 11 13 14 14 16 18 19 14 8 4
7 7 7 9 11 13 13 14 14 14 13 12 10 6 6 6 6 9 13 19 20 21 23 19 16 16 18 19 21 20 19 20 21 20 20 21 22 22 21 20 19 19 20 20 20 19 19 18 17 17 18 18 16 15 15 14 13 13 12 12 12 13 13 12 12 13 13 12 12 11 9 8 9 10 10 11 13 14 15 15 15 17 15 10 8
6 7 7 8 12 16 17 17 17 16 14 13 12 9 8 9 7 7 11 16 19 20 20 17 17 18 17 15 16 17 19 21 22 22 22 20 19 17 16 17 18 18 19 19 19 19 19 17 17 17 17 17 16 15 15 14 13 13 12 12 12 12 12 12 11 11 12 11 11 11 10 9 9 10 10 12 14 14 14 15 14 15 13 9 10
6 7 7 8 12 17 18 18 18 18 17 16 15 14 13 12 9 7 8 10 13 14 14 14 15 15 15 15 12 13 17 19 21 22 18 13 13 14 16 19 19 18 19 18 18 18 18 17 16 16 16 16 16 15 15 14 13 13 13 12 12 12 12 12 11 12 11 11 11 12 11 10 9 9 10 11 14 14 14 14 15 15 12 8 9
7 7 7 9 12 16 17 19 19 20 21 19 18 17 16 15 13 10 9 7 6 8 10 11 9 9 12 13 10 12 14 17 19 16 8 9 14 17 17 18 17 17 18 18 18 18 17 16 16 16 15 15 16 16 15 15 14 13 13 12 12 12 12 12 11 12 12 11 11 12 11 10 9 9 9 11 13 13 14 16 16 15 13 9 8
8 8 8 9 12 14 16 18 19 20 21 21 20 18 16 16 16 14 12 10 8 7 7 8 8 8 11 12 13 14 13 12 13 8 4 11 19 18 16 18 17 17 18 17 18 17 16 16 16 15 15 16 17 17 16 15 14 14 13 13 12 13 13 12 12 12 12 12 11 11 10 10 10 8 8 9 11 12 14 16 17 16 14 11 8
8 8 8 9 11 13 16 18 19 20 20 21 21 19 18 17 17 17 16 13 12 11 10 9 8 7 10 11 11 11 9 7 8 7 8 14 19 18 18 19 17 17 18 17 16 16 16 16 16 15 16 17 18 17 16 15 13 13 13 12 12 13 13 13 13 13 12 12 12 11 10 9 9 8 8 8 9 11 13 14 15 15 14 12 9
7 7 7 10 12 14 16 17 17 19 21 20 20 20 20 19 18 18 17 16 15 14 14 12 10 8 8 8 7 7 6 6 9 11 11 13 16 17 18 18 17 17 17 17 15 16 18 19 17 15 14 16 18 18 15 14 12 11 12 12 12 13 13 13 12 12 12 12 12 11 9 9 9 8 8 9 9 10 11 12 13 14 13 12 10
8 8 8 10 12 12 13 14 15 18 20 19 19 20 20 20 20 19 18 17 16 15 15 14 12 10 10 8 6 6 7 10 12 13 13 13 14 16 16 17 17 16 17 17 17 18 20 20 18 15 14 15 17 18 16 13 12 11 11 11 12 11 11 11 11 12 12 12 11 10 9 9 9 9 9 9 10 10 10 11 11 11 11 11 10
8 8 8 8 9 10 12 13 15 17 18 18 19 20 21 21 22 22 21 18 16 15 14 13 12 11 11 9 6 7 9 13 15 14 14 14 15 15 15 16 16 16 17 17 18 19 20 19 18 16 15 15 16 17 16 14 13 13 12 11 11 10 9 10 11 11 11 10 10 9 9 10 9 8 9 9 9 10 9 10 10 10 10 10 11
7 7 7 8 8 10 13 14 16 18 19 18 18 20 21 22 23 23 22 19 16 13 13 12 11 10 10 9 7 8 11 13 15 14 14 14 15 16 16 16 16 16 18 19 19 19 18 17 17 16 16 16 17 17 16 15 14 14 13 12 11 10 10 11 12 12 11 10 9 9 10 10 9 8 8 9 9 9 9 9 9 9 9 10 11
7 7 8 8 8 9 12 14 16 19 21 21 20 20 21 22 23 23 22 20 16 13 12 12 11 9 9 9 7 8 10 11 13 14 15 16 16 17 18 18 18 18 19 20 19 18 16 16 16 15 15 16 17 18 17 16 15 14 13 12 11 11 11 12 13 13 12 10 10 10 10 10 9 9 8 7 7 6 6 7 8 10 12 12 12
8 9 8 8 8 9 11 14 16 19 21 21 21 21 22 22 24 24 22 19 16 14 12 11 11 10 9 7 7 9 9 10 12 14 16 18 18 18 19 18 18 20 20 20 19 17 15 16 15 14 14 15 17 17 17 17 16 15 14 14 12 11 11 12 13 13 12 12 12 12 11 10 10 9 8 7 6 5 3 3 5 8 11 13 14
8 8 8 7 8 10 11 13 17 20 21 20 20 21 22 23 23 23 23 20 17 16 14 12 10 9 9 8 6 8 10 10 12 15 17 19 19 18 19 18 18 20 21 20 19 17 15 16 16 14 14 16 16 17 17 16 16 15 15 15 14 12 11 12 13 14 13 13 14 13 12 12 12 12 11 10 9 8 7 6 5 3 3 7 10
7 7 8 8 8 11 12 13 16 20 21 19 19 21 22 23 22 22 23 21 19 18 16 14 12 9 8 9 7 8 10 11 12 15 16 18 19 19 19 20 20 20 22 21 19 17 16 16 16 14 14 15 16 16 16 15 15 16 16 16 16 14 13 12 13 15 15 16 16 16 16 16 15 14 13 11 10 9 9 9 9 8 6 3 4
7 8 9 9 8 10 12 13 16 20 21 21 20 21 22 23 22 22 22 22 21 20 18 17 15 12 8 7 8 8 10 11 12 14 14 15 17 19 20 22 21 20 21 20 18 17 18 17 16 15 15 16 16 16 15 13 13 14 15 17 18 16 15 15 16 17 18 18 18 18 17 16 15 13 12 11 11 10 9 10 10 9 8 6 4
7 8 8 8 9 10 11 14 17 19 20 20 20 21 22 21 21 22 22 23 23 23 22 20 18 15 11 7 6 6 8 11 11 11 11 11 13 16 18 20 19 18 17 17 18 19 19 18 17 16 15 16 16 15 13 12 12 13 15 18 19 18 17 18 19 19 20 19 19 18 17 16 14 13 12 11 11 10 10 10 10 10 10 9 7
6 6 7 8 10 11 13 17 20 19 19 20 20 21 21 22 23 24 24 24 25 25 25 23 21 19 16 11 6 3 4 9 10 9 10 10 10 12 14 14 15 15 15 16 19 20 19 17 17 16 16 16 15 14 12 12 13 14 16 19 20 20 20 20 20 20 19 18 18 17 17 16 14 13 11 11 10 10 9 9 8 8 8 8 7
5 5 6 9 11 13 17 20 20 20 20 21 22 22 22 24 25 26 26 26 26 26 27 26 24 22 19 15 9 4 0 4 7 8 9 10 8 8 10 11 13 15 15 17 20 20 18 17 16 17 17 16 15 14 13 13 14 15 18 20 22 23 23 22 21 20 18 17 16 16 16 16 15 13 12 10 9 8 8 8 8 8 7 6 5
4 5 7 10 12 15 17 18 18 20 21 22 23 23 24 26 27 28 29 28 27 27 28 27 26 23 21 18 13 7 4 3 4 6 8 9 8 7 8 10 12 13 15 17 18 18 18 18 17 17 17 16 16 15 15 16 16 18 20 23 24 25 24 23 21 19 17 16 15 14 15 15 14 14 12 11 9 8 8 8 8 9 8 7 6
4 7 10 12 14 17 18 17 19 21 22 22 22 23 26 28 29 29 30 30 30 29 27 26 26 23 21 19 16 12 9 7 6 7 8 8 8 7 7 10 12 13 15 16 16 17 17 17 17 17 16 16 17 17 17 18 19 20 23 25 26 26 25 24 22 20 18 17 16 14 14 14 13 12 12 11 9 8 9 10 10 10 9 9 9
8 12 15 15 16 18 20 20 21 22 21 21 21 23 27 29 28 29 30 31 31 29 26 24 24 22 21 19 17 16 14 11 9 10 11 10 10 10 10 12 14 15 16 17 16 16 16 16 17 18 18 18 19 19 19 21 22 23 24 26 27 26 25 24 22 21 20 18 17 15 13 12 11 11 11 10 8 8 10 11 11 11 12 11 10
12 15 16 15 16 19 22 23 23 22 21 21 21 24 27 27 26 28 30 30 29 27 25 23 21 20 20 18 17 18 17 14 12 11 13 13 14 15 15 15 16 17 18 19 18 17 18 17 17 18 18 20 21 20 19 20 21 23 24 26 27 26 25 24 22 21 20 18 17 15 13 12 12 11 11 10 9 8 10 11 10 11 13 13 11
14 16 16 17 19 22 23 24 23 21 21 22 23 26 27 25 25 29 30 28 26 25 24 23 22 20 19 18 17 17 17 16 14 13 14 16 17 18 17 16 17 18 20 22 21 20 20 19 17 17 17 17 18 19 19 19 18 19 20 21 22 20 20 22 21 18 19 19 17 16 15 13 12 12 11 11 10 9 10 11 10 10 12 13 11
15 17 17 19 22 23 23 22 21 21 22 23 25 27 26 25 27 29 28 25 23 23 24 26 25 23 21 20 18 16 16 17 15 13 15 17 18 19 20 19 19 19 21 24 24 23 23 21 19 17 16 15 14 14 16 17 18 19 16 12 12 14 15 18 19 17 16 17 16 16 16 14 12 12 11 11 12 11 10 11 11 12 13 12 10
16 18 19 20 22 23 23 22 22 22 22 23 25 26 25 25 28 28 25 23 23 23 25 28 29 27 25 23 21 17 16 16 15 13 14 16 18 22 23 24 24 23 24 25 24 24 25 25 23 21 18 17 14 12 12 11 13 15 12 8 9 14 16 16 18 18 17 17 17 16 17 15 13 13 12 13 13 13 12 14 15 15 14 13 12
16 18 19 20 21 21 21 21 21 21 22 22 24 24 25 26 27 26 23 23 23 24 26 29 31 31 28 26 24 21 18 16 15 14 14 16 18 21 24 25 25 25 26 25 24 23 25 26 26 25 22 19 17 15 14 12 10 11 12 12 14 17 17 16 19 20 20 20 19 18 17 16 13 13 13 14 14 14 15 16 17 16 14 13 12
16 17 18 20 19 18 19 21 21 21 20 21 21 22 23 24 23 22 22 22 22 24 26 28 30 31 31 29 27 25 22 19 17 16 15 15 16 17 20 22 23 23 23 23 22 21 22 23 25 25 23 21 20 19 18 17 16 16 17 17 17 18 16 16 19 20 20 19 19 18 17 14 13 13 13 14 15 15 16 16 15 14 13 12 11
15 17 18 20 19 18 19 20 20 19 19 19 19 20 20 20 19 19 20 21 21 23 25 26 27 29 31 31 30 29 27 25 22 20 20 18 16 16 17 19 21 21 21 22 21 21 22 23 23 23 23 22 22 22 21 20 18 18 18 17 17 16 14 14 16 18 17 17 17 16 15 14 14 14 15 15 16 16 15 14 13 12 12 12 12
15 16 18 19 19 19 19 20 20 19 18 16 16 16 17 16 16 17 18 20 22 23 25 25 26 27 30 33 33 32 31 29 28 27 26 24 22 21 20 20 20 22 22 23 23 23 23 23 22 22 22 22 22 22 21 20 18 17 16 14 14 14 12 12 13 14 14 15 15 16 15 15 15 14 14 14 15 14 13 12 11 11 11 11 11
14 16 17 18 19 19 18 19 19 19 18 16 14 14 13 12 14 15 16 18 21 23 24 24 25 27 29 32 33 33 33 34 33 31 31 30 28 27 26 24 22 22 24 25 25 24 23 23 22 21 20 20 20 19 18 17 16 15 13 11 10 10 10 9 11 12 13 14 15 15 15 14 14 13 13 13 13 12 11 10 10 10 10 10 10
14 15 16 17 18 17 17 18 18 18 19 19 17 15 12 11 12 12 13 16 20 22 22 23 24 25 27 29 31 32 34 35 36 35 35 34 32 31 31 30 27 24 25 25 25 24 23 21 20 19 18 18 17 16 15 14 12 10 9 7 6 6 7 7 9 11 12 13 15 15 15 14 13 13 13 13 12 11 10 9 9 9 9 9 9
14 15 15 16 16 17 17 18 18 18 19 20 20 19 16 13 12 12 12 15 18 20 20 21 21 23 24 26 28 30 32 33 34 35 34 33 31 30 31 30 28 25 25 25 24 23 21 19 18 17 16 15 15 14 12 10 8 6 5 4 3 4 6 8 10 10 11 13 15 15 15 15 14 13 13 12 10 9 9 9 8 8 8 9 9
13 14 15 15 16 17 18 18 18 19 20 20 20 20 18 17 16 15 14 14 15 17 19 19 19 20 21 22 24 26 28 30 30 30 30 29 28 27 27 26 24 22 21 21 21 20 18 16 15 14 13 12 11 9 7 5 4 3 3 2 3 5 7 10 12 13 13 15 17 17 16 15 13 12 11 10 9 8 9 9 9 10 10 11 12
13 14 15 15 16 17 18 19 19 20 21 21 20 19 19 18 18 17 17 15 14 15 16 17 17 17 17 19 20 21 23 25 25 24 24 24 24 23 22 21 19 17 16 16 16 16 14 12 12 10 8 7 5 4 3 3 2 2 2 3 6 8 10 12 13 13 15 17 17 17 15 13 12 12 12 11 10 10 10 11 12 13 13 14 15
Wind_Direction
235 215 207 184 190 198 203 209 213 217 219 216 212 209 212 215 217 216 218 224 225 227 227 217 205 215 228 233 237 238 234 228 223 221 223 230 237 245 248 242 235 225 214 210 210 212 213 214 215 205 197 199 197 194 191 189 189 189 188 183 177 162 148 152 153 146 136 128 125 127 138 155 171 188 195 201 206 211 207 204 203 194 185 189 195
338 138 152 171 191 198 203 209 212 215 214 212 210 210 212 215 217 216 217 220 221 224 225 214 206 218 231 237 239 242 240 232 225 217 215 234 250 254 252 241 230 224 217 211 207 206 208 213 213 204 201 203 201 197 195 192 189 190 186 175 172 164 154 156 158 150 138 135 129 109 106 133 172 203 209 209 219 224 216 212 203 194 188 186 196
129 90 101 167 196 200 203 210 215 219 219 216 214 213 214 217 218 217 217 218 217 220 220 219 219 220 227 235 238 243 244 240 235 218 207 233 252 248 243 235 230 229 224 216 210 207 209 212 209 205 206 207 202 196 193 192 187 188 186 175 163 157 157 163 164 160 150 142 135 124 129 134 146 188 193 201 241 231 177 189 178 193 199 184 193
140 135 143 167 192 200 205 213 219 223 223 222 217 215 219 223 223 221 219 219 217 216 216 219 221 221 227 234 239 244 242 239 227 203 199 225 239 236 231 228 229 234 231 219 210 211 217 217 211 205 206 207 203 197 192 191 188 186 186 181 170 157 155 166 170 169 162 151 138 120 125 132 170 181 141 125 257 71 140 167 160 200 206 183 194
153 160 153 148 154 184 216 224 227 226 225 226 222 218 223 229 230 230 229 226 222 218 214 212 209 208 214 220 219 219 217 211 197 190 200 217 222 222 221 219 218 222 224 218 211 213 221 224 218 208 204 206 204 201 196 193 192 189 188 187 183 175 167 171 176 177 175 169 156 138 119 149 202 164 143 128 139 182 171 173 166 187 198 192 201
138 145 140 132 126 136 217 237 240 236 232 233 232 229 232 239 238 235 235 232 228 225 221 217 213 208 204 200 196 188 184 192 197 201 213 222 218 215 215 214 212 207 206 211 215 216 220 224 221 212 207 208 206 204 200 197 196 195 195 195 194 195 184 176 176 177 181 180 167 160 161 191 175 152 156 155 137 164 171 177 177 177 196 197 198
120 128 142 137 128 133 175 234 243 243 242 240 237 237 238 242 243 238 238 237 233 230 228 226 223 220 217 213 210 202 194 197 204 206 214 225 222 217 217 216 213 206 200 208 217 218 219 220 218 215 213 213 211 209 207 205 205 203 202 202 200 201 194 183 178 176 181 188 181 172 164 177 171 160 166 166 142 159 161 167 172 178 194 192 193
126 132 141 131 127 137 164 208 232 242 249 249 245 244 243 244 244 239 238 240 239 236 235 233 230 228 227 225 222 217 211 206 204 203 210 221 222 220 223 220 213 206 201 207 215 217 220 218 215 217 217 216 215 214 215 214 214 211 208 207 205 205 203 196 188 181 183 190 186 176 149 163 169 171 176 165 141 147 148 151 158 170 180 174 190
124 135 135 123 127 142 169 197 226 246 261 273 266 258 253 248 245 242 241 243 244 242 241 241 239 236 233 230 225 221 218 210 201 198 205 216 220 219 222 221 211 203 201 207 211 213 216 213 213 215 216 217 219 218 218 217 217 217 214 212 210 206 205 205 199 191 190 192 187 177 149 154 160 167 172 157 129 142 148 140 145 147 153 153 181
138 142 133 126 136 148 171 195 222 250 279 296 280 263 253 248 246 243 242 245 246 246 246 245 243 240 236 233 228 221 214 205 196 195 202 211 217 219 218 214 207 203 203 208 210 209 207 205 207 211 214 218 220 220 220 219 219 219 220 217 213 206 202 204 206 203 200 196 192 183 162 153 149 148 167 157 128 131 141 142 147 135 125 142 180
150 149 117 99 108 124 140 153 180 314 342 356 347 303 267 253 248 242 239 241 244 249 251 249 243 238 236 233 230 225 216 205 196 195 200 206 211 217 214 204 201 204 205 207 209 207 202 199 202 210 215 217 218 220 222 223 222 219 221 219 214 210 207 207 209 208 204 199 198 197 189 180 177 182 183 173 154 138 143 144 140 133 128 129 159
40 82 83 71 68 74 75 57 36 23 10 6 0 346 319 281 257 248 246 245 248 254 258 254 243 234 233 231 229 229 224 216 208 201 203 205 207 210 206 199 200 203 205 205 205 202 198 196 203 212 216 216 217 220 221 223 223 220 219 217 213 212 213 214 213 213 209 203 203 207 208 207 211 217 198 185 175 158 150 142 132 135 132 122 142
27 34 41 46 49 49 43 32 29 25 15 7 356 345 329 297 263 253 253 252 256 262 261 255 244 235 233 229 228 229 228 225 220 211 206 205 204 204 203 201 202 202 202 201 198 197 195 196 205 211 213 214 216 218 219 219 220 220 218 216 214 213 214 216 218 221 221 216 215 214 214 219 226 231 210 191 179 158 148 140 135 139 130 128 143
30 33 36 39 40 45 42 30 23 16 7 2 355 349 335 297 260 253 250 247 254 260 257 250 242 239 238 234 232 232 229 226 225 220 215 209 204 203 204 204 205 204 203 199 194 194 195 197 204 209 210 213 216 216 216 215 215 217 218 218 218 218 217 218 221 226 227 226 225 220 220 227 231 229 211 193 180 165 156 147 141 137 129 132 136
27 28 34 32 25 30 34 27 19 10 2 356 351 349 341 310 263 253 246 241 247 252 251 246 241 242 243 242 241 238 232 230 228 226 223 216 208 206 207 207 208 208 206 201 195 194 196 197 203 208 210 213 216 214 212 211 212 213 215 218 219 219 220 222 225 226 224 223 221 218 221 228 225 216 203 197 194 186 174 162 154 147 138 133 124
19 17 24 21 17 20 23 21 16 10 8 3 357 348 328 301 264 252 244 240 241 242 244 246 244 243 244 247 251 249 243 242 237 230 227 222 215 211 210 210 211 210 209 203 196 195 197 198 203 207 210 213 215 214 211 210 209 210 212 215 214 213 216 220 222 221 220 217 211 209 215 217 209 201 197 201 206 202 191 177 167 159 153 146 141
15 10 16 15 21 27 23 18 12 7 5 0 357 351 326 296 267 258 253 249 244 240 246 257 259 251 245 246 253 258 255 252 247 239 233 225 218 216 214 213 212 213 211 204 196 196 198 200 204 206 207 211 214 212 211 210 209 207 209 210 208 208 212 214 213 213 213 209 204 204 206 201 194 195 199 203 207 204 197 190 183 174 164 150 155
11 10 17 18 31 38 34 26 17 10 5 359 355 344 339 330 287 262 260 260 257 251 253 272 296 286 267 256 255 256 255 253 249 245 239 226 218 216 212 210 212 216 215 205 198 199 201 203 208 208 207 209 212 211 209 208 208 207 207 208 206 209 213 211 207 207 207 204 203 202 200 197 197 202 207 205 205 205 198 196 196 188 176 165 166
12 16 18 16 29 33 33 29 21 18 17 16 15 2 350 349 324 283 271 269 268 266 264 275 293 295 294 286 272 262 257 255 251 247 240 225 213 210 208 211 217 221 220 211 204 204 206 209 212 211 209 208 209 210 209 208 209 209 207 206 206 209 211 207 200 199 200 201 201 201 197 194 195 200 205 204 204 205 201 199 199 194 189 187 178
15 16 14 14 24 26 26 25 19 20 23 26 28 21 13 9 356 332 314 293 278 274 280 288 290 296 312 315 298 275 264 259 257 251 239 220 217 222 222 220 219 219 221 217 213 212 212 214 215 212 209 207 206 207 208 208 210 210 208 206 206 206 207 206 200 195 196 198 198 199 200 194 188 191 196 199 201 202 200 200 201 198 194 195 187
14 13 11 9 16 19 21 23 22 22 23 24 26 23 20 17 10 2 359 346 310 284 293 309 304 298 312 314 300 280 269 263 260 256 237 227 241 239 228 221 217 217 219 218 218 219 218 218 215 210 206 202 200 201 204 205 205 205 205 207 209 206 205 205 202 197 194 194 195 196 198 194 190 191 193 194 196 198 199 199 200 200 198 197 195
13 13 13 7 9 12 16 19 21 21 19 18 20 18 16 13 9 7 7 6 360 340 325 331 324 294 287 287 278 272 270 266 260 261 264 248 244 237 227 222 216 214 215 218 221 222 219 215 209 203 199 197 196 197 198 197 196 198 200 204 206 205 205 204 202 198 192 190 194 195 194 191 189 188 187 188 193 198 201 201 202 203 201 200 203
15 11 13 10 8 10 13 14 13 13 14 13 14 13 10 6 3 3 3 4 6 5 3 2 351 316 291 282 272 264 264 257 240 241 263 254 240 232 230 224 216 213 214 218 223 221 211 201 195 194 194 195 196 195 193 190 191 195 197 199 202 203 205 203 200 198 193 190 194 194 191 189 184 180 181 184 190 196 201 203 204 205 204 205 211
10 8 14 14 14 14 13 10 6 7 9 8 8 8 7 5 0 357 358 1 1 2 3 7 5 341 311 292 269 254 250 236 224 228 242 244 234 229 228 222 217 216 215 215 216 209 198 186 182 186 188 191 193 192 191 192 192 195 195 194 194 197 201 201 198 194 190 190 193 193 191 187 181 178 180 183 186 191 197 201 204 206 207 210 215
7 10 16 17 16 13 9 7 4 4 7 7 7 7 5 4 2 359 359 2 3 1 359 2 1 349 333 321 289 255 244 235 231 230 229 228 224 220 219 219 219 217 214 212 204 196 191 183 178 181 184 188 191 191 194 195 192 189 187 183 181 185 191 193 190 187 185 185 188 189 186 182 180 180 181 180 181 184 190 196 202 207 210 212 216
15 13 13 13 11 6 6 9 6 4 7 9 9 9 6 4 5 6 4 3 3 1 356 352 348 340 333 327 298 257 247 239 233 231 227 221 215 210 211 214 215 213 208 203 196 193 193 187 181 185 192 195 194 194 197 195 187 183 179 176 175 176 180 181 178 178 180 182 184 182 179 176 178 181 179 176 175 178 185 193 201 208 214 216 216
22 15 10 7 4 2 5 8 6 6 11 15 14 11 8 6 7 10 9 5 2 2 358 348 339 330 320 311 286 253 248 241 231 225 221 214 206 203 202 201 205 205 200 194 192 194 194 190 190 194 199 200 197 197 199 192 184 182 179 178 179 177 175 175 174 173 175 177 178 178 176 175 174 171 167 163 162 170 182 193 203 214 223 224 222
26 19 10 3 359 0 3 3 5 9 14 18 17 13 10 9 10 12 12 9 6 3 358 348 338 331 317 302 276 252 250 242 230 221 212 204 200 197 196 197 197 197 198 196 192 191 190 189 193 196 195 197 197 198 198 192 185 183 182 184 186 184 179 177 175 174 172 170 166 165 167 167 163 157 155 155 155 168 188 205 219 228 234 233 230
28 18 7 2 0 360 358 358 4 11 14 15 14 11 12 12 12 13 14 16 16 9 2 351 339 329 318 301 265 245 244 234 225 217 202 195 197 197 195 197 198 195 196 197 195 195 194 189 190 193 192 193 196 197 195 192 189 189 191 194 193 188 181 176 173 170 166 161 157 158 162 162 157 150 148 147 145 146 150 177 219 234 238 234 229
26 15 2 1 2 0 357 355 4 12 14 12 11 11 13 13 13 13 14 21 27 23 18 12 356 337 324 311 267 231 226 223 218 210 195 187 191 193 191 195 201 196 192 194 198 200 199 192 189 191 193 193 195 194 193 194 195 197 199 198 194 187 180 174 169 163 157 155 157 156 154 150 145 139 135 133 129 123 116 113 117 131 198 225 223
19 11 4 1 359 1 359 355 4 14 15 11 10 13 16 17 16 15 16 24 34 33 29 25 14 356 335 315 283 230 211 212 211 204 191 180 179 182 184 190 195 190 186 194 201 200 196 192 188 187 189 190 189 189 191 196 200 204 204 197 189 183 177 170 164 158 152 151 151 147 141 140 139 136 132 128 121 113 107 104 103 104 108 144 208
14 10 5 359 352 351 352 356 9 16 15 12 13 17 20 19 18 19 23 29 36 36 33 31 23 11 353 320 289 246 207 198 200 199 192 178 172 173 176 181 184 183 187 196 200 195 191 189 184 181 181 181 180 180 184 191 194 195 194 186 182 180 172 164 160 155 151 149 145 140 138 137 136 133 129 124 117 108 99 95 95 99 103 105 118
14 11 2 348 337 340 350 5 16 17 14 13 17 21 22 22 24 28 32 33 34 34 33 33 30 23 13 349 302 254 199 181 184 193 194 184 175 171 173 178 182 186 193 196 192 188 188 185 183 181 178 176 175 174 177 184 184 182 181 178 177 175 167 159 157 154 151 149 145 141 138 134 132 132 129 123 116 106 98 94 92 92 91 88 88
10 8 356 338 334 349 8 20 22 19 18 21 25 27 27 29 32 36 38 36 34 32 31 30 31 31 26 14 346 295 192 176 178 186 187 183 177 172 175 185 193 194 196 193 186 183 183 184 184 184 181 177 174 171 174 181 184 184 184 180 174 168 160 155 154 152 151 149 147 145 142 137 135 135 131 126 120 111 105 100 94 90 86 82 81
5 357 349 344 350 9 19 23 23 23 24 27 28 29 30 32 33 35 37 37 35 32 30 28 28 32 32 28 17 2 2 172 179 184 178 168 158 158 169 183 195 198 196 190 184 182 182 183 184 184 183 179 174 173 176 182 186 187 183 175 166 158 153 150 148 148 148 147 146 146 143 138 134 130 126 123 120 116 111 106 101 96 91 88 85
357 350 356 1 11 24 27 24 25 29 30 31 31 32 33 33 33 33 34 35 35 31 27 26 27 29 33 35 35 33 38 86 146 164 164 158 149 147 157 164 173 185 186 179 176 177 178 180 180 180 180 177 174 174 176 176 176 176 171 163 156 152 149 147 145 144 143 141 141 142 138 134 130 124 118 114 113 114 112 109 107 104 102 102 98
22 30 31 30 34 41 40 35 35 36 35 35 35 37 40 38 36 34 33 34 33 28 23 24 26 28 34 40 44 46 53 72 107 127 134 145 149 146 150 154 156 163 165 163 163 164 166 170 172 172 174 172 168 168 170 167 166 168 166 158 153 150 148 145 142 141 140 137 135 135 135 133 128 119 111 108 109 111 107 105 107 107 105 103 98
42 47 45 42 44 48 47 44 43 41 38 39 40 42 46 42 37 36 35 33 30 26 22 24 25 27 34 42 48 51 56 68 91 113 122 131 136 133 136 144 145 143 144 146 150 151 152 155 157 159 162 163 160 158 160 159 160 164 163 158 155 152 147 143 140 138 138 136 132 130 132 131 126 118 113 112 111 107 103 105 110 112 107 100 95
49 52 49 44 47 51 50 48 45 40 38 42 44 47 49 43 37 38 36 31 27 23 22 26 29 30 33 40 49 54 58 65 78 99 116 124 129 128 129 134 134 129 129 135 140 138 136 137 141 145 148 150 150 150 153 156 159 161 160 157 154 149 142 139 138 134 132 131 129 127 126 124 121 118 116 114 110 105 102 104 109 110 103 96 93
54 58 57 53 53 52 49 44 40 38 41 45 47 51 50 42 39 40 35 27 26 24 26 32 36 38 38 39 45 53 58 64 72 89 108 119 124 125 127 129 126 118 117 122 126 125 120 118 124 130 132 134 137 140 142 147 149 148 150 150 144 136 133 133 132 128 124 122 120 119 115 113 113 114 114 112 108 104 103 105 104 98 93 91 89
62 63 62 59 56 53 50 44 41 42 45 47 50 51 48 42 43 41 32 28 31 32 34 38 40 42 43 42 44 49 56 64 73 85 99 111 119 125 128 128 123 114 108 108 111 113 110 106 108 115 116 113 117 126 135 143 146 143 143 146 141 140 143 139 132 130 127 120 115 111 108 107 109 110 109 106 102 99 99 100 94 88 87 88 86
64 64 62 60 56 53 51 47 45 45 45 48 51 49 45 44 44 40 34 36 42 42 41 44 43 43 44 44 44 45 52 65 79 91 98 104 113 122 126 126 123 117 109 104 103 104 104 101 100 101 100 98 99 109 126 143 155 155 159 177 174 163 163 157 143 135 130 124 118 115 113 113 113 111 107 101 97 94 93 92 90 89 89 86 82
59 59 60 61 57 52 49 47 48 48 47 48 49 46 43 43 43 42 43 47 49 50 49 49 47 46 45 45 46 45 47 57 72 89 102 107 112 119 123 124 122 117 112 107 105 101 98 95 94 93 94 96 98 103 110 117 128 138 146 159 160 154 156 157 145 133 128 125 124 122 120 119 117 112 104 98 96 95 94 93 92 91 89 85 81
58 61 62 62 57 50 47 48 51 52 50 49 48 45 43 41 41 45 50 51 52 55 55 54 53 51 50 48 49 50 49 51 60 76 91 101 109 115 117 120 122 121 116 111 108 106 102 95 92 92 94 97 100 102 104 106 110 115 121 127 131 131 134 137 130 124 124 126 127 126 126 125 121 113 107 105 103 101 99 97 94 91 87 82 78
63 66 67 64 59 52 48 48 51 54 53 51 49 48 45 39 40 47 52 54 56 58 57 55 55 56 57 55 53 54 55 55 57 64 71 79 90 98 101 106 114 118 116 109 106 106 104 100 97 97 96 99 103 104 103 103 105 106 106 106 108 110 112 114 115 117 122 126 128 129 129 127 121 117 116 114 110 105 101 97 93 88 81 75 73
64 67 69 67 63 58 52 50 51 53 55 52 49 49 47 43 44 49 53 57 62 62 60 56 54 57 61 62 61 61 61 60 59 59 61 65 73 80 84 90 97 102 103 101 100 100 99 96 95 94 93 96 100 102 102 102 100 97 95 93 95 97 99 102 109 117 124 130 133 134 132 128 124 121 119 114 108 106 103 97 89 80 71 67 68
67 68 70 69 64 58 53 52 51 52 54 54 49 48 51 52 54 54 55 60 65 66 65 62 58 59 63 66 67 67 67 66 64 61 61 61 64 69 71 71 76 83 90 92 93 94 94 92 90 89 91 93 94 95 97 96 93 90 89 90 93 98 102 109 119 128 136 141 143 142 138 133 129 123 116 111 109 107 100 90 80 69 62 62 64
75 72 72 71 66 61 56 54 53 53 55 56 53 53 56 60 62 63 63 65 67 69 70 68 65 64 65 67 70 71 70 69 67 64 62 60 60 62 64 63 62 68 77 83 84 85 87 88 88 90 90 88 85 83 82 82 81 81 83 84 92 105 114 123 129 134 140 146 149 147 141 135 131 123 115 110 107 101 91 81 72 66 64 68 73
80 75 75 73 68 63 60 57 56 58 60 59 58 58 60 62 66 70 72 71 70 71 72 72 71 71 71 71 73 74 73 72 70 69 67 65 62 61 62 62 61 62 68 74 76 76 78 79 80 81 82 80 78 75 74 76 77 78 77 77 95 120 129 131 131 135 141 144 144 140 133 129 126 120 112 105 99 92 85 79 75 76 81 87 92
86 80 79 75 68 63 61 58 58 60 62 62 62 62 62 63 64 67 71 75 76 74 73 75 76 77 79 79 80 80 79 77 75 74 73 72 69 65 61 61 60 57 57 61 65 67 67 65 65 65 64 67 71 73 72 72 73 77 82 94 116 127 130 128 131 135 138 136 132 125 121 120 117 112 105 97 91 88 89 89 91 94 96 97 96
91 85 80 74 67 63 59 56 57 61 63 63 64 64 63 62 62 62 63 68 74 78 79 79 78 81 84 85 85 86 85 83 82 80 78 77 76 72 68 66 64 58 52 51 55 58 58 57 60 61 56 57 66 74 74 73 75 94 123 129 129 130 129 129 134 136 129 124 122 118 112 110 108 103 97 93 93 96 98 101 103 102 99 97 95